Terminal Aerodrome Forecast
Issued by NWS

Home | Current Version | Previous Version | Text Only | Print | Product List | Glossary On
Versions: 1 2 3 4 5 6 7 8 9 10 11 12 13 14 15 16 17 18 19 20 21 22 23 24 25 26 27 28 29 30
722
FTUS41 KOKX 270130 AAA
TAFHPN
TAF AMD
KHPN 270130Z 2702/2724 VRB03KT P6SM OVC010
     FM270300 VRB03KT 3SM BR OVC005
     FM270500 VRB03KT 3/4SM BR OVC003
     FM271300 VRB03KT 1SM BR BKN003 OVC007
     FM271500 15005KT P6SM FEW007 SCT012 BKN030
     FM272100 14007KT 5SM BR SCT007 BKN012
      AMD NOT SKED=

USA.gov is the U.S. government's official web portal to all federal, state and local government web resources and services.